TimePST,TemperatureF,Dew PointF,Humidity,Sea Level PressureIn,VisibilityMPH,Wind Direction,Wind SpeedMPH,Gust SpeedMPH,PrecipitationIn,Events,Conditions,WindDirDegrees,DateUTC
12:15 AM,33.8,33.8,100,30.17,10.0,SW,4.6,-,N/A,,Overcast,220,2013-02-01 08:15:00
12:53 AM,33.1,30.9,92,30.22,7.0,SW,10.4,-,N/A,,Mostly Cloudy,220,2013-02-01 08:53:00
1:53 AM,33.1,32.0,96,30.24,7.0,SW,8.1,-,N/A,,Mostly Cloudy,220,2013-02-01 09:53:00
2:32 AM,32.0,32.0,100,30.20,5.0,Calm,Calm,-,N/A,,Overcast,0,2013-02-01 10:32:00
2:53 AM,32.0,30.9,96,30.25,2.5,SSW,6.9,-,N/A,,Overcast,200,2013-02-01 10:53:00
3:31 AM,30.2,30.2,100,30.21,0.5,Variable,3.5,-,N/A,Fog,Light Freezing Fog,0,2013-02-01 11:31:00
3:53 AM,30.9,30.0,96,30.27,0.5,Calm,Calm,-,N/A,Fog,Light Freezing Fog,0,2013-02-01 11:53:00
4:30 AM,30.2,30.2,100,30.21,0.1,WSW,3.5,-,N/A,Fog,Light Freezing Fog,240,2013-02-01 12:30:00
4:53 AM,30.9,30.0,96,30.28,0.2,SW,4.6,-,N/A,Fog,Light Freezing Fog,230,2013-02-01 12:53:00
5:53 AM,30.9,28.9,92,30.30,0.5,SSW,6.9,-,N/A,Fog,Light Freezing Fog,210,2013-02-01 13:53:00
6:53 AM,30.9,30.0,96,30.31,0.5,Calm,Calm,-,N/A,Fog,Light Freezing Fog,0,2013-02-01 14:53:00
7:53 AM,30.9,30.0,96,30.33,0.2,SSW,4.6,-,N/A,Fog,Light Freezing Fog,200,2013-02-01 15:53:00
8:53 AM,32.0,30.9,96,30.35,0.5,South,4.6,-,N/A,Fog,Fog,170,2013-02-01 16:53:00
9:53 AM,32.0,30.9,96,30.36,0.5,South,6.9,-,N/A,Fog,Fog,180,2013-02-01 17:53:00
10:53 AM,32.0,32.0,100,30.38,0.5,South,6.9,-,N/A,Fog,Fog,170,2013-02-01 18:53:00
11:11 AM,32.0,32.0,100,30.33,1.0,South,5.8,-,N/A,,Overcast,190,2013-02-01 19:11:00
11:53 AM,33.1,32.0,96,30.39,3.0,South,4.6,-,N/A,,Overcast,190,2013-02-01 19:53:00
12:16 PM,33.8,32.0,93,30.34,8.0,SSE,4.6,-,N/A,,Overcast,150,2013-02-01 20:16:00
12:53 PM,34.0,30.9,89,30.40,10.0,South,6.9,-,N/A,,Overcast,170,2013-02-01 20:53:00
1:53 PM,36.0,32.0,86,30.40,10.0,Calm,Calm,-,N/A,,Mostly Cloudy,0,2013-02-01 21:53:00
2:53 PM,37.9,32.0,79,30.40,10.0,South,3.5,-,N/A,,Mostly Cloudy,190,2013-02-01 22:53:00
3:53 PM,37.9,32.0,79,30.41,10.0,WSW,5.8,-,N/A,,Mostly Cloudy,240,2013-02-01 23:53:00
4:53 PM,37.0,30.9,79,30.42,10.0,Calm,Calm,-,N/A,,Mostly Cloudy,0,2013-02-02 00:53:00
5:53 PM,32.0,28.9,88,30.43,10.0,Calm,Calm,-,N/A,,Scattered Clouds,0,2013-02-02 01:53:00
6:53 PM,32.0,28.9,88,30.44,9.0,Calm,Calm,-,N/A,,Scattered Clouds,0,2013-02-02 02:53:00
7:44 PM,30.2,28.4,93,30.37,1.0,Calm,Calm,-,N/A,,Scattered Clouds,0,2013-02-02 03:44:00
7:53 PM,28.0,27.0,96,30.45,0.2,Calm,Calm,-,N/A,Fog,Light Freezing Fog,0,2013-02-02 03:53:00
8:02 PM,28.4,26.6,93,30.38,0.2,NNE,3.5,-,N/A,Fog,Light Freezing Fog,20,2013-02-02 04:02:00
8:08 PM,26.6,26.6,100,30.38,0.5,North,3.5,-,N/A,Fog,Light Freezing Fog,350,2013-02-02 04:08:00
8:28 PM,26.6,26.6,100,30.39,0.2,Calm,Calm,-,N/A,Fog,Light Freezing Fog,0,2013-02-02 04:28:00
8:53 PM,27.0,26.1,96,30.47,0.1,Calm,Calm,-,N/A,Fog,Light Freezing Fog,0,2013-02-02 04:53:00
9:41 PM,26.6,24.8,93,30.41,0.2,Calm,Calm,-,N/A,Fog,Light Freezing Fog,0,2013-02-02 05:41:00
9:53 PM,25.0,24.1,96,30.49,0.2,Calm,Calm,-,N/A,Fog,Light Freezing Fog,0,2013-02-02 05:53:00
10:00 PM,26.6,24.8,93,30.41,0.2,Calm,Calm,-,N/A,Fog,Light Freezing Fog,0,2013-02-02 06:00:00
10:53 PM,26.1,24.1,92,30.49,0.1,Calm,Calm,-,N/A,Fog,Light Freezing Fog,0,2013-02-02 06:53:00
11:18 PM,24.8,23.0,93,30.41,0.5,Calm,Calm,-,N/A,Fog,Light Freezing Fog,0,2013-02-02 07:18:00
11:53 PM,24.1,21.9,91,30.49,1.0,Calm,Calm,-,N/A,,Partly Cloudy,0,2013-02-02 07:53:00